DW9572 Weather Reports


Display with metric or nautical units.
time (UTC)temp
F
wind
direction
speed
MPH
gust
MPH
rain 1hr
in
rain 24hr
in
rain mn
in
humidity
%
barometer
mb
20260905144550 58 118 1.0 3.0 0.00 0.00 0.00 76 1017.3
20260905143040 57 104 1.0 4.0 0.00 0.00 0.00 76 1017.0
20260905141537 57 291 2.0 5.0 0.00 0.00 0.00 77 1016.8
20260905140039 56 263 4.0 7.0 0.00 0.00 0.00 78 1016.7
20260905134533 57 279 7.0 10.0 0.00 0.00 0.00 76 1016.6
20260905133011 58 266 4.0 7.0 0.00 0.00 0.00 73 1016.5
20260905131510 57 347 0.0 2.0 0.00 0.00 0.00 69 1016.2
20260905130053 57 155 0.0 3.0 0.00 0.00 0.00 67 1016.0
20260905124550 59 276 0.0 6.0 0.00 0.00 0.00 66 1015.7
20260905123031 59 359 10.0 13.0 0.00 0.00 0.00 63 1015.4
20260905121530 59 15 4.0 6.0 0.00 0.00 0.00 59 1015.6
20260905120012 59 16 1.0 5.0 0.00 0.00 0.00 59 1015.7
20260905114512 58 349 5.0 6.0 0.00 0.00 0.00 62 1015.8
20260905113053 57 263 4.0 5.0 0.00 0.00 0.00 66 1015.8
20260905111606 56 276 4.0 6.0 0.00 0.00 0.00 67 1015.7
20260905110035 57 353 2.0 4.0 0.00 0.00 0.00 62 1015.6
20260905104543 57 10 0.0 3.0 0.00 0.00 0.00 62 1015.7
20260905103021 57 32 3.0 4.0 0.00 0.00 0.00 60 1015.4
20260905101521 58 45 2.0 5.0 0.00 0.00 0.00 59 1015.4
20260905100019 59 77 3.0 4.0 0.00 0.00 0.00 59 1015.3
20260905094518 62 338 2.0 4.0 0.00 0.00 0.00 54 1015.3
20260905093018 59 263 4.0 5.0 0.00 0.00 0.00 61 1015.3
20260905091518 58 269 2.0 8.0 0.00 0.00 0.00 64 1015.3
20260905090021 58 256 5.0 12.0 0.00 0.00 0.00 68 1015.3
20260905084522 59 242 9.0 12.0 0.00 0.00 0.00 66 1015.2
20260905083058 59 281 7.0 10.0 0.00 0.00 0.00 63 1014.9
20260905081611 62 259 7.0 9.0 0.00 0.00 0.00 57 1014.8
20260905080051 63 332 8.0 11.0 0.00 0.00 0.00 50 1014.6
20260905074638 63 333 1.0 9.0 0.00 0.00 0.00 50 1014.7
20260905073034 63 349 5.0 9.0 0.00 0.00 0.00 49 1014.5
20260905071518 63 346 7.0 12.0 0.00 0.00 0.00 49 1014.4
20260905070100 63 349 8.0 12.0 0.00 0.00 0.00 50 1014.4
20260905064602 63 350 7.0 11.0 0.00 0.00 0.00 51 1014.3
20260905063040 62 345 9.0 13.0 0.00 0.00 0.00 51 1014.1
20260905061603 62 348 8.0 11.0 0.00 0.00 0.00 51 1014.2
20260905060022 61 13 4.0 8.0 0.00 0.00 0.00 53 1014.1
20260905054521 61 277 0.0 4.0 0.00 0.00 0.00 56 1014.1
20260905053018 63 274 2.0 4.0 0.00 0.00 0.00 50 1014.0
20260905051507 65 340 6.0 13.0 0.00 0.00 0.00 48 1013.8
20260905050010 65 347 5.0 8.0 0.00 0.00 0.00 49 1013.8
20260905044514 64 314 3.0 8.0 0.00 0.00 0.00 50 1013.9
20260905043006 66 338 7.0 11.0 0.00 0.00 0.00 46 1013.8
20260905041510 65 336 0.0 2.0 0.00 0.00 0.00 44 1013.8
20260905040006 65 36 1.0 7.0 0.00 0.00 0.00 43 1013.8
20260905034508 64 274 4.0 7.0 0.00 0.00 0.00 55 1013.6
20260905033045 66 266 7.0 10.0 0.00 0.00 0.00 52 1013.5
20260905031545 67 290 4.0 11.0 0.00 0.00 0.00 40 1013.5
20260905030025 69 353 5.0 6.0 0.00 0.00 0.00 36 1013.2
20260905024525 68 357 4.0 5.0 0.00 0.00 0.00 36 1013.1
20260905023007 70 23 1.0 2.0 0.00 0.00 0.00 35 1013.1
20260905021507 71 69 1.0 3.0 0.00 0.00 0.00 35 1013.0
20260905020049 71 63 3.0 4.0 0.00 0.00 0.00 34 1013.0
20260905014548 72 62 1.0 4.0 0.00 0.00 0.00 33 1012.9
20260905013028 72 82 3.0 5.0 0.00 0.00 0.00 32 1012.8
20260905011528 72 117 3.0 4.0 0.00 0.00 0.00 33 1012.7
20260905010016 72 103 4.0 6.0 0.00 0.00 0.00 32 1012.7
20260905004509 72 148 2.0 6.0 0.00 0.00 0.00 34 1012.6
20260905003108 73 143 3.0 8.0 0.00 0.00 0.00 35 1012.6
20260905001550 73 111 9.0 11.0 0.00 0.00 0.00 34 1012.5
20260905000050 72 169 6.0 8.0 0.00 0.00 0.00 34 1012.6
20260904234540 72 91 4.0 10.0 0.00 0.00 0.00 35 1012.5
20260904233032 72 146 5.0 12.0 0.00 0.00 0.00 36 1012.6
20260904231513 72 138 7.0 12.0 0.00 0.00 0.00 37 1012.6
20260904230013 72 190 6.0 13.0 0.00 0.00 0.00 37 1012.7
20260904224556 72 138 3.0 9.0 0.00 0.00 0.00 39 1012.6
20260904223058 72 124 5.0 11.0 0.00 0.00 0.00 39 1012.6
20260904221535 73 135 10.0 15.0 0.00 0.00 0.00 38 1012.7
20260904220055 73 67 3.0 10.0 0.00 0.00 0.00 37 1012.7
20260904214517 71 51 5.0 12.0 0.00 0.00 0.00 39 1012.7
20260904213014 71 139 4.0 12.0 0.00 0.00 0.00 39 1012.9
20260904211610 71 126 0.0 10.0 0.00 0.00 0.00 40 1012.8
20260904210056 71 115 8.0 13.0 0.00 0.00 0.00 39 1012.9
20260904204530 70 195 3.0 9.0 0.00 0.00 0.00 39 1012.9
20260904203043 70 139 7.0 12.0 0.00 0.00 0.00 40 1013.0
20260904201511 70 114 3.0 9.0 0.00 0.00 0.00 39 1013.0
20260904200009 69 108 3.0 9.0 0.00 0.00 0.00 40 1013.0
20260904194506 69 194 4.0 9.0 0.00 0.00 0.00 44 1013.0
20260904193003 68 129 4.0 9.0 0.00 0.00 0.00 47 1013.1
20260904191600 68 128 4.0 10.0 0.00 0.00 0.00 47 1013.3
20260904190059 67 200 3.0 9.0 0.00 0.00 0.00 49 1013.5
20260904184558 66 34 6.0 11.0 0.00 0.00 0.00 47 1013.6
20260904183108 65 94 5.0 9.0 0.00 0.00 0.00 50 1013.6
20260904181533 65 70 8.0 14.0 0.00 0.00 0.00 52 1013.3
20260904180030 64 53 4.0 11.0 0.00 0.00 0.00 52 1013.4
20260904174510 63 49 9.0 11.0 0.00 0.00 0.00 54 1013.3
20260904173011 62 20 6.0 11.0 0.00 0.00 0.00 58 1013.3
20260904171552 61 63 5.0 9.0 0.00 0.00 0.00 60 1013.4
20260904170048 60 98 4.0 9.0 0.00 0.00 0.00 61 1013.5
20260904164522 59 23 4.0 11.0 0.00 0.00 0.00 64 1013.5
20260904163020 59 50 4.0 10.0 0.00 0.00 0.00 63 1013.3
20260904161507 59 16 4.0 8.0 0.00 0.00 0.00 63 1013.3
20260904160004 58 92 5.0 8.0 0.00 0.00 0.00 61 1013.1
20260904154602 58 45 3.0 9.0 0.00 0.00 0.00 63 1013.1
20260904153101 56 25 4.0 5.0 0.00 0.00 0.00 69 1013.1
20260904151556 53 97 4.0 4.0 0.00 0.00 0.00 70 1013.0
20260904150056 54 38 2.0 3.0 0.00 0.00 0.00 71 1012.9
20260904144557 54 4 2.0 5.0 0.00 0.00 0.00 71 1012.7